Location: Bogotá
(4.6533°N, 74.0837°W)
Time: 22:54:07
(UTC+00:00)

ISS - Pass Details

Date: 08 February 2026
Orbit: 413 x 428 km, 51.6° (Epoch: 14 February)

Event Time Altitude Azimuth Distance (km) Brightness Sun altitude
Exits shadow 09:40:50 - 190° (S) 2,104 -0.1 -22.8°
Reaches altitude 10° 09:42:35 10° 176° (S) 1,493 -0.8 -22.4°
Maximum altitude 09:45:11 21° 125° (SE) 999 -1.1 -21.8°
Drops below altitude 10° 09:47:47 10° 74° (ENE) 1,484 -0.1 -21.2°
Sets 09:50:11 0° 57° (ENE) 2,341 0.7 -20.6°
